Meteo Giornale » Osservazioni meteo Reunion » Saint-Pierre

ore: 22:00 - Osservazioni Meteo Saint-Pierre
Lat. 21° 20' S Lon. 55° 29' E Alt. 52 metri s.l.m.

sereno

22 °C

Sereno

Temp. 24 Ore

19 °C

27 °C

Nord-Est

11.1 Km/h

Dew point 17 °C

Umidità 73 %

Visibilità  10 Km

Il sole sorge alle ore 06:27

Il sole tramonta alle ore 18:08

Data e Ora Cielo e Fenomeni T °C DP °C Um. % Pres. hPa Vis. km Vento km/h
Oggi h: 22:00 sereno Sereno 22 17 73 1025 10 NE 11.1
Oggi h: 21:30 sereno Sereno 22 16 68 1024 10 N 5.5
Oggi h: 21:00 sereno Sereno 21 17 77 1025 10 E 9.3
Oggi h: 20:30 sereno Sereno 22 17 73 1024 10 N 9.3
Oggi h: 20:00 sereno Sereno 23 16 64 1024 10 E/SE 11.1
Oggi h: 19:30 sereno Sereno 22 17 73 1023 10 E/NE 7.4
Oggi h: 19:00 sereno Sereno 23 16 64 1023 10 N 3.7
Oggi h: 18:30 sereno Sereno 24 17 64 1023 10 E 9.3
Oggi h: 18:00 poco_nuvoloso Poco Nuvoloso 24 17 64 1022 10 SE 18.5
Oggi h: 17:30 sereno Sereno 25 17 61 1022 10 N 11.1
Oggi h: 17:00 sereno Sereno 26 17 57 1022 10 N 7.4
Oggi h: 16:30 sereno Sereno 26 17 57 1022 10 SE 18.5
Oggi h: 16:00 sereno Sereno 26 18 61 1022 10 SE 20.3
Oggi h: 15:30 sereno Sereno 27 18 57 1022 10 S/SE 18.5
Oggi h: 15:00 sereno Sereno 26 19 65 1022 10 SE 35.2
Oggi h: 14:30 sereno Sereno 26 19 65 1022 10 SE 38.8
Oggi h: 14:00 sereno Sereno 26 18 61 1023 10 SE 40.7
Oggi h: 13:30 poco_nuvoloso Poco Nuvoloso 26 18 61 1023 10 SE 38.8
Oggi h: 13:00 sereno Sereno 26 19 65 1023 10 SE 44.4
Oggi h: 12:30 sereno Sereno 26 18 61 1023 10 SE 42.6
Oggi h: 12:00 sereno Sereno 26 18 61 1024 10 SE 44.4
Oggi h: 11:30 sereno Sereno 26 18 61 1024 10 SE 42.6
Oggi h: 11:00 sereno Sereno 27 18 57 1024 10 SE 33.3
Oggi h: 10:30 sereno Sereno 26 18 61 1024 10 SE 31.5
Oggi h: 10:00 sereno Sereno 26 16 54 1025 10 SE 25.9
Oggi h: 09:30 poco_nuvoloso Poco Nuvoloso 26 15 50 1025 10 SE 22.2
Oggi h: 09:00 molto_nuvoloso Molto Nuvoloso 26 16 54 1025 10 SE 13
Oggi h: 08:30 molto_nuvoloso Molto Nuvoloso 24 14 53 1025 10 E 11.1
Oggi h: 08:00 coperto Coperto 23 15 60 1025 10 SE 22.2
Oggi h: 07:30 molto_nuvoloso Molto Nuvoloso 22 14 60 1025 10 E/SE 16.7
Oggi h: 07:00 nebbia Cielo Invisibile 21 15 68 1025 10 E 20.3
Oggi h: 06:30 coperto Coperto 21 16 73 1024 10 E/SE 29.6
Oggi h: 06:00 coperto Coperto 21 15 68 1024 10 E 13
Oggi h: 05:30 molto_nuvoloso Molto Nuvoloso 19 14 72 1024 10 E 11.1
Oggi h: 05:00 molto_nuvoloso Molto Nuvoloso 20 14 68 1023 10 E 7.4
Oggi h: 04:30 nuvoloso Nuvoloso 21 14 64 1023 10 NE 13
Oggi h: 04:00 poco_nuvoloso Poco Nuvoloso 20 14 68 1023 10 E 9.3
Oggi h: 03:30 coperto Coperto 21 14 64 1023 10 N/NE 11.1
Oggi h: 03:00 molto_nuvoloso Molto Nuvoloso 20 15 72 1024 10 N 5.5
Oggi h: 02:30 poco_nuvoloso Poco Nuvoloso 20 15 72 1024 10 E/SE 13
Oggi h: 02:00 nuvoloso Nuvoloso 20 15 72 1024 10 N 9.3
Oggi h: 01:30 molto_nuvoloso Molto Nuvoloso 20 14 68 1024 10 N/NE 7.4
Oggi h: 01:00 poco_nuvoloso Poco Nuvoloso 20 15 72 1024 10 N/NE 7.4
Oggi h: 00:30 sereno Sereno 20 15 72 1025 10 E 9.3
Oggi h: 00:00 molto_nuvoloso Molto Nuvoloso 20 15 72 1025 10 N 9.3
Ieri h: 23:30 molto_nuvoloso Molto Nuvoloso 20 15 72 1025 10 N 5.5
Ieri h: 23:00 poco_nuvoloso Poco Nuvoloso 20 15 72 1025 10 N 5.5